Location: Unspecified
(0.0000°N, 0.0000°E)
Time: 04:31:08
(UTC+00:00)

Vanguard 1 - Pass Details

Date: 12 December 2023
Orbit: 653 x 3826 km, 34.3° (Epoch: 22 February)

Event Time Altitude Azimuth Distance (km) Brightness Sun altitude
Rises 19:16:59 0° 321° (NW) 6,297 14.4 -19.1°
Reaches altitude 10° 19:22:44 10° 337° (NNW) 5,805 14.0 -20.4°
Maximum altitude 19:36:09 22° 21° (NNE) 5,692 13.5 -23.4°
Enters shadow 19:40:08 21° 34° (NE) 5,901 13.5 -24.3°
Drops below altitude 10° 19:51:53 10° 64° (ENE) 6,916 - -27.0°
Sets 19:59:41 0° 78° (ENE) 7,788 - -28.7°
